Regional Weather Roundup
Issued by NWS

Home | Current Version | Previous Version | Text Only | Print | Product List | Glossary Off
Versions: 1 2 3 4 5 6 7 8 9 10 11 12 13 14 15 16 17 18 19 20 21 22 23 24 25 26 27 28 29 30 31 32 33 34 35 36 37 38 39 40 41 42 43 44 45 46 47 48 49 50

000
ASUS43 KMPX 100601
RWRMN
WEATHER ROUNDUP FOR MINNESOTA
NATIONAL WEATHER SERVICE TWIN CITIES/CHANHASSEN MN
1200 AM CST WED FEB 10 2016


NOTE: "FAIR" INDICATES FEW OR NO CLOUDS BELOW 12,000 FEET WITH NO
SIGNIFICANT WEATHER AND/OR OBSTRUCTIONS TO VISIBILITY. N/A MEANS
CURRENT SKY AND/OR WEATHER CONDITIONS ARE NOT AVAILABLE.

MNZ060>063-068>070-100700-
   Twin Cities Metro

CITY           SKY/WX    TMP DP  RH WIND       PRES   REMARKS
TWIN CITIES    PTCLDY     8  -4  58 N14       30.15F WCI  -8
6HR MIN TEMP:   8; 6HR MAX TEMP:  14;

ST PAUL        CLEAR      7  -4  60 NW9       30.17F WCI  -7
CRYSTAL        CLEAR      7  -4  60 N7        30.14F WCI  -5
BLAINE         CLEAR      7  -2  66 NW8       30.13F WCI  -6
LAKEVILLE      CLOUDY     3  -4  72 NW6       30.13F WCI  -8
EDEN PRAIRIE   CLEAR      7  -5  57 NW6       30.14F WCI  -3
6HR MIN TEMP:   7; 6HR MAX TEMP:  14;

SOUTH ST PAUL  CLEAR      9  -3  58 N8        30.15S WCI  -4
LAKE ELMO      FAIR       7  -4  61 NW3       30.14S
$$
MNZ001>005-007-008-013>017-022>024-027-028-100700-
   Northwest Minnesota

CITY           SKY/WX    TMP DP  RH WIND       PRES   REMARKS
BEMIDJI        CLOUDY    -8 -11  84 W3        30.13F
HALLOCK        CLOUDY     0  -9  65 N3        30.22F
ROSEAU         CLOUDY    -8 -13  77 CALM      30.18F
WARROAD        CLOUDY    -8 -11  84 N5        30.18S WCI -19
THIEF RVR FALL CLOUDY     0  -9  65 NE3       30.18F
CROOKSTON      CLOUDY     1  -2  85 N3        30.21F
FOSSTON          N/A    -11 -17  77 CALM      30.16S
DETROIT LAKES  CLOUDY     0  -4  85 N3        30.15S
MOORHEAD       CLOUDY     1  -2  85 NE5       30.20F WCI  -8
PARK RAPIDS    CLOUDY    -7 -12  79 CALM      30.12F
MAHNOMEN       FAIR      -6 -10  83 N3        30.16S
$$
MNZ006-009>011-018-025>026-100700-
   North Central Minnesota

CITY           SKY/WX    TMP DP  RH WIND       PRES   REMARKS
BAUDETTE       PTCLDY    -9 -15  75 N7        30.15F WCI -24
FLAG ISLAND    CLOUDY    -9 -15  77 CALM      30.18R
INTL FALLS     CLOUDY    -7 -11  83 N6        30.13F WCI -20
6HR MIN TEMP:  -8; 6HR MAX TEMP:   1;

WASKISH        CLOUDY   -13 -17  84 CALM      30.15F
LONGVILLE      CLOUDY    -4  -8  84 NW3       30.13F
GRAND RAPIDS   CLOUDY    -4 -11  71 N7        30.10F WCI -18
ORR            CLOUDY   -11 -18  70 CALM      30.08F
COOK           CLOUDY    -6  -9  84 N5        30.10S WCI -17
WALKER         FAIR      -6 -10  84 NW3       30.14F
$$
MNZ012-019>021-037-100700-
   Northeast Minnesota

CITY           SKY/WX    TMP DP  RH WIND       PRES   REMARKS
DULUTH         CLOUDY    -3  -8  79 NW7       30.06R WCI -16
6HR MIN TEMP:  -3; 6HR MAX TEMP:   5;

ELY            CLOUDY    -2  -8  78 N7        30.05S WCI -16
HIBBING        CLOUDY    -8 -11  86 NW8       30.09R WCI -24
EVELETH        CLOUDY     0  -8  71 N3        30.09R HAZE
DULUTH HARBOR  CLOUDY     5  -2  72 N10G20    30.16R WCI -10
TWO HARBORS    PTCLDY    -2  -8  78 CALM      30.06S
SILVER BAY     CLOUDY    -6  -9  84 CALM      30.05F
G MARAIS ARPRT LGT SNOW  -6 -13  71 N8        29.95S WCI -21
$$
MNZ029>031-032-039>041-046>048-054>057-064-100700-
   West Central Minnesota

CITY           SKY/WX    TMP DP  RH WIND       PRES   REMARKS
FERGUS FALLS   CLOUDY     3   0  85 CALM      30.21S
WHEATON        CLOUDY    12   7  79 N7        30.21S WCI   2
MORRIS         CLOUDY    10   3  72 NE9       30.16S WCI  -2
ALEXANDRIA     CLOUDY     2  -2  83 N6        30.14S WCI  -9
ELBOW LAKE     MOCLDY     5   1  83 CALM      30.17S
WADENA         CLOUDY    -4  -8  84 CALM      30.13F
GLENWOOD       CLOUDY     1  -2  85 N5        30.14F WCI  -8
APPLETON       CLOUDY    12   7  79 N6        30.18S WCI   3
BENSON         CLOUDY    10   1  67 NE9       30.17S WCI  -2
ORTONVILLE     CLOUDY    12   7  79 N6        30.17S WCI   3
MADISON        CLOUDY    16   7  67 N8        30.17S WCI   5
WILLMAR        FAIR       7   1  78 NW7       30.16S WCI  -5
$$
MNZ033>034-036-042>043-049>051-058-059-100700-
   Central Minnesota

CITY           SKY/WX    TMP DP  RH WIND       PRES   REMARKS
ST CLOUD       CLOUDY     4  -4  69 N6        30.15S WCI  -7
6HR MIN TEMP:   4; 6HR MAX TEMP:  12;

SAUK CENTRE    FAIR      -1  -5  83 NW5       30.15F WCI -11
PAYNESVILLE    CLOUDY     3  -1  81 NW7       30.15F WCI  -9
AITKIN         CLOUDY     1  -8  66 NW5       30.12S WCI  -8
PINE RIVER     CLOUDY    -9 -13  84 CALM      30.16F
BRAINERD       CLOUDY    -1  -7  75 N3        30.14S
STAPLES        CLOUDY    -6  -9  84 N3        30.14F
LONG PRAIRIE   FAIR       1  -4  78 NW5       30.15S WCI  -8
LITTLE FALLS   CLOUDY     3  -6  66 NW3       30.16S
LITCHFIELD     CLEAR      5   0  78 NW6       30.16R WCI  -6
BUFFALO        CLEAR      6  -2  69 NW5       30.16S WCI  -3
MAPLE LAKE     CLEAR      7   0  74 N8        30.16S WCI  -6
$$
MNZ037-044-045-052-053-100700-
   East Central Minnesota

CITY           SKY/WX    TMP DP  RH WIND       PRES   REMARKS
PRINCETON      CLEAR      5  -4  66 NW7       30.15R WCI  -7
MORA           CLEAR      1  -6  71 NW6       30.16S WCI -10
CAMBRIDGE      CLEAR      7  -4  61 CALM      30.13S
RUSH CITY      MOCLDY     4  -4  69 N6        30.15R WCI  -7
MOOSE LAKE     CLOUDY     0  -6  78 N6        30.12R WCI -12
HINCKLEY       FAIR       3  -4  72 NW8       30.13S WCI -10
CLOQUET        CLOUDY    -2  -8  78 NW10      30.10R WCI -19
MCGREGOR       CLOUDY     0  -6  78 NW7       30.13R WCI -13
$$
MNZ071>073-080-081-089-090-097-098-100700-
   Southwest Minnesota

CITY           SKY/WX    TMP DP  RH WIND       PRES   REMARKS
MONTEVIDEO     CLOUDY    12   7  79 N6        30.19R WCI   3
GRANITE FALLS  CLOUDY    15   8  73 NW6       30.18S WCI   6
CANBY          CLOUDY    18  12  79 NE5       30.17R WCI  11
MARSHALL       CLOUDY    14   8  77 N10       30.15F WCI   1
REDWOOD FALLS  CLOUDY    13   4  67 N10       30.16S WCI   0
OLIVIA         CLOUDY    12   3  67 N8        30.16R WCI   1
PIPESTONE      CLOUDY    18   7  62 NE3       30.09F
WINDOM         CLOUDY    14   9  79 NW9       30.12F WCI   2
WORTHINGTON    CLOUDY    16   9  73 N6        30.12F WCI   7
JACKSON        CLOUDY    18   9  68 NW8       30.12F WCI   7
TRACY          CLOUDY    16   9  76 N7        30.13F WCI   6
SLAYTON        CLOUDY    15  11  85 N6        30.11F WCI   6
$$
MNZ065>067-074>077-082>085-091>093-100700-
   South Central Minnesota

CITY           SKY/WX    TMP DP  RH WIND       PRES   REMARKS
MANKATO        CLOUDY     7   0  72 NW8       30.13F WCI  -6
NEW ULM        CLEAR      9   1  72 NW9       30.15S WCI  -5
ST JAMES       CLOUDY    10   5  79 N7        30.15F WCI   0
FAIRMONT       CLOUDY    10   3  72 NW9       30.12F WCI  -2
GLENCOE        CLEAR      8   2  78 NW7       30.15R WCI  -4
FARIBAULT        N/A      5   0  78 NW5       30.12F WCI  -4
OWATONNA       CLOUDY     5  -2  72 W7        30.11F WCI  -7
WASECA         CLOUDY     3  -4  72 NW8       30.13F WCI -10
ALBERT LEA     CLOUDY     9   1  72 NW8       30.10F WCI  -4
$$
MNZ078>079-086>088-094>096-100700-
   Southeast Minnesota

CITY           SKY/WX    TMP DP  RH WIND       PRES   REMARKS
ROCHESTER      CLOUDY     2  -6  69 NW9       30.08S WCI -13
6HR MIN TEMP:   2; 6HR MAX TEMP:  10;

RED WING       CLEAR      7  -6  56 W5        30.12F WCI  -2
STANTON        CLOUDY     5  -5  62 NW6       30.12F WCI  -6
DODGE CENTER   PTCLDY     3  -2  78 NW8       30.08F WCI -10
WINONA         CLEAR     10   0  61 NW9       30.12S WCI  -2
AUSTIN         CLOUDY     7   1  78 NW8       30.09F WCI  -6
PRESTON        CLOUDY     5  -5  62 NW9       30.07S WCI  -9
$$
ABBREVIATIONS USED IN REMARKS
   TC - TEMPERATURES IN CELSIUS
  WCI - WIND CHILL INDEX
   HX - HEAT INDEX
  VSB - VISIBILITY
$$



USA.gov is the U.S. government's official web portal to all federal, state and local government web resources and services.